Regional Weather Roundup
Issued by NWS

Home | Current Version | Previous Version | Graphics & Text | Print | Product List | Glossary On
Versions: 1 2 3 4 5 6 7 8 9 10 11 12 13 14 15 16 17 18 19 20 21 22 23 24 25 26 27 28 29 30 31 32 33 34 35 36 37 38 39 40 41 42 43 44 45 46 47 48 49 50
408
ASUS45 KCYS 070910
RWRWY

WYOMING REGIONAL WEATHER ROUNDUP
NATIONAL WEATHER SERVICE CHEYENNE WY
200 AM MST SUN FEB 07 2016

NOTE:  "FAIR" INDICATES FEW OR NO CLOUDS BELOW 12,000 FEET
WITH NO SIGNIFICANT WEATHER AND/OR OBSTRUCTIONS TO VISIBILITY.

WYZ001-071000-
YELLOWSTONE NATIONAL PARK

CITY           SKY/WX    TMP DP  RH WIND       PRES   REMARKS
LK YELLOWSTONE   N/A     19  14  81 VRB6      30.28F WCI  11
W YELLOWSTONE  NOT AVBL

$$
WYZ002>013-054>058-071-098>099-071000-
NORTHERN WYOMING

CITY           SKY/WX    TMP DP  RH WIND       PRES   REMARKS
JACKSON        FAIR      30  23  74 S9G17     30.33S WCI  22
CODY           MOCLDY    27  12  54 SW6       30.21R WCI  20
GREYBULL       CLOUDY    37  16  42 N12       30.20S WCI  29
WORLAND        FAIR      26  17  68 SW5       30.21R WCI  20
SHERIDAN       CLOUDY    35  19  52 NW25G31   30.20R WCI  23
BUFFALO        FLURRIES  31  20  63 N23G38    30.17R WCI  18
GILLETTE       CLOUDY    30  21  69 NW22G38   30.15R WCI  17
HULETT         PTSUNNY   34  18  51 NW12G18   30.10R WCI  25
NEWCASTLE      FAIR      32  19  59 NW16G23   30.11R WCI  21

$$
WYZ014>020-022>026-101>103-071000-
CENTRAL WYOMING

CITY           SKY/WX    TMP DP  RH WIND       PRES   REMARKS
BIG PINEY      FAIR      24  17  74 NE14      30.32R WCI  12
PINEDALE       FAIR      21  18  86 NW13      30.31S WCI   9
DUBOIS         FAIR      28  14  54 NW32      30.18R WCI  12
LANDER         FAIR      25  13  60 N3        30.18R
RIVERTON       FAIR      33  17  51 W16       30.19R WCI  23
CASPER         FAIR      17  11  77 W7        30.16R WCI   8
DOUGLAS        CLOUDY    29  18  63 N15         N/A  WCI  18

$$
WYZ021-027>030-104>119-071000-
SOUTHERN WYOMING

CITY           SKY/WX    TMP DP  RH WIND       PRES   REMARKS
EVANSTON       MOCLDY    28  14  55 SW23      30.37F WCI  14
FORT BRIDGER   PTSUNNY   27  18  69 W17       30.38S WCI  14
ROCK SPRINGS   FAIR      26  15  63 W15       30.34R WCI  14
DIXON          FAIR      13   7  77 W5        30.36F WCI   5
RAWLINS        FAIR      23  15  71 SW28G37   30.23S WCI   6
SARATOGA       FAIR      27  19  74 W28G35    30.23R WCI  11
LARAMIE        FAIR      26  15  63 W31       30.14S WCI   9
CHEYENNE       FAIR      35  16  45 W25G36    30.09S WCI  23
TORRINGTON     FAIR      30  18  60 NW8       30.15R WCI  22
PINE BLUFFS    FAIR      30  21  69 N8        30.15R WCI  23

$$




USA.gov is the U.S. government's official web portal to all federal, state and local government web resources and services.